Eagle, CO

10:09 AM MDT on October 18, 2017 (GMT -0600)
Eagle County Regional

Weather History for KEGE - November, 2013

Change the Weather History Date:

Friday, November 29, 2013

  Actual Average Record
Temperature  
Mean Temperature 28 °F -  
Max Temperature 44 °F 35 °F 57 °F (1949)
Min Temperature 12 °F 9 °F -24 °F (1952)
Degree Days  
Heating Degree Days 37    
Moisture  
Dew Point 19 °F    
Average Humidity 88    
Maximum Humidity 100    
Minimum Humidity 46    
Precipitation  
Precipitation 0.00 in - - ()
Sea Level Pressure  
Sea Level Pressure 30.33 in    
Wind  
Wind Speed 1 mph (ESE)    
Max Wind Speed 7 mph    
Max Gust Speed -    
Visibility 10 miles    
Events      
Averages and records for this station are not official NWS values.
T = Trace of Precipitation, MM = Missing Value Source: NWS Daily Summary

Daily Weather History Graph

Daily Weather History Graph

Search for Another Location

Airport or City:

Trip Planner

Search our weather history database for the weather conditions in past years. The results will help you decide how hot, cold, wet, or windy it might be!

Date:

Astronomy

Nov. 29, 2013 Rise Set
Actual Time 7:07 AM MST 4:44 PM MST
Civil Twilight 6:37 AM MST 5:14 PM MST
Nautical Twilight 6:04 AM MST 5:47 PM MST
Astronomical Twilight 5:32 AM MST 6:19 PM MST
Moon 3:16 AM MST (11/29) 2:30 PM MST (11/29)
Length of Visible Light 10h 36m
Length of Day
9h 36m
Waning Crescent, 13% of the Moon is Illuminated
Nov 29
Waning Crescent
Dec 2
New
Dec 9
First Quarter
Dec 17
Full
Dec 25
Last Quarter

Hourly Weather History & Observations

Time (MST) Temp. Windchill Dew Point Humidity Pressure Visibility Wind Dir Wind Speed Gust Speed Precip Events Conditions
12:15 AM 19.4 °F - 17.6 °F 93% 30.29 in 10.0 mi Calm Calm - N/A   Clear
12:35 AM 17.6 °F - 15.8 °F 93% 30.29 in 10.0 mi Calm Calm - N/A   Partly Cloudy
12:55 AM 17.6 °F - 17.6 °F 100% 30.29 in 10.0 mi Calm Calm - N/A   Partly Cloudy
1:15 AM 19.4 °F 12.8 °F 17.6 °F 93% 30.29 in 10.0 mi ESE 4.6 mph - N/A   Scattered Clouds
1:35 AM 19.4 °F 11.5 °F 17.6 °F 93% 30.30 in 10.0 mi ENE 5.8 mph - N/A   Partly Cloudy
1:55 AM 17.6 °F 10.7 °F 17.6 °F 100% 30.30 in 10.0 mi East 4.6 mph - N/A   Partly Cloudy
2:15 AM 17.6 °F - 17.6 °F 100% 30.31 in 10.0 mi Calm Calm - N/A   Partly Cloudy
2:35 AM 17.6 °F - 15.8 °F 93% 30.31 in 10.0 mi Calm Calm - N/A   Clear
2:55 AM 17.6 °F - 15.8 °F 93% 30.31 in 10.0 mi Calm Calm - N/A   Partly Cloudy
3:15 AM 15.8 °F - 14.0 °F 93% 30.32 in 10.0 mi Calm Calm - N/A   Clear
3:35 AM 15.8 °F - 14.0 °F 93% 30.32 in 10.0 mi Calm Calm - N/A   Clear
3:55 AM 15.8 °F - 14.0 °F 93% 30.32 in 10.0 mi Calm Calm - N/A   Clear
4:15 AM 15.8 °F - 14.0 °F 93% 30.33 in 10.0 mi Calm Calm - N/A   Clear
4:35 AM 15.8 °F - 14.0 °F 93% 30.33 in 10.0 mi Calm Calm - N/A   Clear
4:55 AM 14.0 °F - 12.2 °F 93% 30.34 in 10.0 mi Calm Calm - N/A   Clear
5:15 AM 14.0 °F - 12.2 °F 93% 30.34 in 10.0 mi Calm Calm - N/A   Clear
5:35 AM 14.0 °F - 12.2 °F 93% 30.34 in 10.0 mi Calm Calm - N/A   Clear
5:55 AM 14.0 °F - 12.2 °F 93% 30.35 in 10.0 mi Calm Calm - N/A   Clear
6:15 AM 12.2 °F - 12.2 °F 100% 30.35 in 10.0 mi Calm Calm - N/A   Clear
6:35 AM 12.2 °F - 12.2 °F 100% 30.37 in 10.0 mi Calm Calm - N/A   Clear
6:50 AM 12.2 °F - 12.2 °F 100% 30.37 in 10.0 mi Calm Calm - N/A   Partly Cloudy
7:50 AM 14.0 °F - 12.2 °F 93% 30.39 in 10.0 mi Calm Calm - N/A   Partly Cloudy
8:50 AM 23.0 °F - 21.2 °F 93% 30.40 in 10.0 mi Calm Calm - N/A   Clear
9:55 AM 30.2 °F - 26.6 °F 86% 30.39 in 10.0 mi Calm Calm - N/A   Clear
10:50 AM 30.2 °F - 24.8 °F 80% 30.37 in 10.0 mi Calm Calm - N/A   Clear
11:50 AM 30.2 °F - 24.8 °F 80% 30.33 in 10.0 mi Calm Calm - N/A   Clear
12:50 PM 35.6 °F - 23.0 °F 60% 30.30 in 10.0 mi Calm Calm - N/A   Clear
1:50 PM 37.4 °F - 24.8 °F 60% 30.28 in 10.0 mi Calm Calm - N/A   Clear
2:50 PM 41.0 °F - 24.8 °F 53% 30.28 in 10.0 mi Calm Calm - N/A   Clear
3:50 PM 44.6 °F 43.1 °F 24.8 °F 46% 30.27 in 10.0 mi WSW 3.5 mph - N/A   Clear
5:50 PM 33.8 °F 29.6 °F 24.8 °F 70% 30.31 in 10.0 mi Variable 4.6 mph - N/A   Clear
6:50 PM 28.4 °F 21.2 °F 24.8 °F 86% 30.32 in 10.0 mi East 6.9 mph - N/A   Clear
6:55 PM 28.4 °F 22.2 °F 24.8 °F 86% 30.32 in 10.0 mi ESE 5.8 mph - N/A   Clear
7:15 PM 28.4 °F 22.2 °F 24.8 °F 86% 30.33 in 10.0 mi East 5.8 mph - N/A   Clear
7:35 PM 26.6 °F 20.0 °F 24.8 °F 93% 30.33 in 10.0 mi ESE 5.8 mph - N/A   Clear
7:55 PM 28.4 °F 23.3 °F 24.8 °F 86% 30.34 in 10.0 mi ESE 4.6 mph - N/A   Clear
8:15 PM 26.6 °F - 24.8 °F 93% 30.34 in 10.0 mi Calm Calm - N/A   Clear
8:35 PM 24.8 °F - 21.2 °F 86% 30.35 in 10.0 mi Calm Calm - N/A   Clear
8:55 PM 24.8 °F - 21.2 °F 86% 30.35 in 10.0 mi Calm Calm - N/A   Clear
9:15 PM 24.8 °F 20.5 °F 21.2 °F 86% 30.35 in 10.0 mi ESE 3.5 mph - N/A   Clear
9:35 PM 24.8 °F 19.1 °F 21.2 °F 86% 30.36 in 10.0 mi East 4.6 mph - N/A   Clear
9:55 PM 23.0 °F - 21.2 °F 93% 30.36 in 10.0 mi Calm Calm - N/A   Clear
10:15 PM 24.8 °F - 21.2 °F 86% 30.36 in 10.0 mi Calm Calm - N/A   Clear
10:35 PM 21.2 °F - 19.4 °F 93% 30.37 in 10.0 mi Calm Calm - N/A   Clear
10:55 PM 21.2 °F - 19.4 °F 93% 30.37 in 10.0 mi Calm Calm - N/A   Clear
11:15 PM 19.4 °F 14.3 °F 19.4 °F 100% 30.37 in 10.0 mi SE 3.5 mph - N/A   Clear
11:35 PM 19.4 °F - 17.6 °F 93% 30.37 in 10.0 mi Calm Calm - N/A   Clear
11:55 PM 19.4 °F 14.3 °F 17.6 °F 93% 30.38 in 10.0 mi SSE 3.5 mph - N/A   Clear